| time (UTC) | temp F | wind direction | speed knots | gust knots | rain 1hr in | rain 24hr in | rain mn in | humidity % | barometer mb |
| 20260504130337 | 57 | 209 | 14.8 | 15.6 | 0.00 | 0.00 | 0.00 | 58 | 1006.6 |
| 20260504120300 | 53 | 208 | 7.0 | 17.4 | 0.00 | 0.00 | 0.00 | 63 | 1006.6 |
| 20260504110224 | 51 | 177 | 3.5 | 13.9 | 0.00 | 0.00 | 0.00 | 65 | 1006.4 |
| 20260504100142 | 51 | 214 | 7.8 | 17.4 | 0.00 | 0.00 | 0.00 | 64 | 1006.4 |
| 20260504090105 | 51 | 196 | 13.0 | 13.0 | 0.00 | 0.00 | 0.00 | 63 | 1006.9 |
| 20260504081535 | 51 | 202 | 9.6 | 13.9 | 0.00 | 0.00 | 0.00 | 62 | 1007.5 |
| 20260504081031 | 51 | 192 | 4.3 | 12.2 | 0.00 | 0.00 | 0.00 | 62 | 1007.3 |
| 20260504080528 | 51 | 197 | 11.3 | 15.6 | 0.00 | 0.00 | 0.00 | 62 | 1007.6 |
| 20260504050340 | 50 | 202 | 4.3 | 11.3 | 0.00 | 0.00 | 0.00 | 66 | 1009.8 |
| 20260504045838 | 50 | 168 | 1.7 | 7.8 | 0.00 | 0.00 | 0.00 | 66 | 1009.8 |
| 20260504045332 | 50 | 165 | 4.3 | 6.1 | 0.00 | 0.00 | 0.00 | 67 | 1009.7 |
| 20260504044829 | 49 | 210 | 2.6 | 7.0 | 0.00 | 0.00 | 0.00 | 67 | 1009.8 |
| 20260504044327 | 50 | 161 | 2.6 | 9.6 | 0.00 | 0.00 | 0.00 | 67 | 1009.8 |
| 20260504043824 | 49 | 157 | 1.7 | 10.4 | 0.00 | 0.00 | 0.00 | 67 | 1009.8 |
| 20260504043321 | 49 | 177 | 3.5 | 10.4 | 0.00 | 0.00 | 0.00 | 67 | 1009.5 |
| 20260504042818 | 49 | 204 | 2.6 | 12.2 | 0.00 | 0.00 | 0.00 | 68 | 1009.8 |
| 20260504042314 | 49 | 167 | 2.6 | 10.4 | 0.00 | 0.00 | 0.00 | 68 | 1009.7 |
| 20260504041811 | 50 | 175 | 4.3 | 9.6 | 0.00 | 0.00 | 0.00 | 68 | 1010.0 |
| 20260504041307 | 49 | 146 | 1.7 | 11.3 | 0.00 | 0.00 | 0.00 | 67 | 1009.8 |
| 20260504040803 | 50 | 220 | 2.6 | 7.8 | 0.00 | 0.00 | 0.00 | 67 | 1010.0 |
| 20260504040301 | 50 | 219 | 5.2 | 9.6 | 0.00 | 0.00 | 0.00 | 66 | 1010.0 |
| 20260504035756 | 50 | 150 | 5.2 | 9.6 | 0.00 | 0.00 | 0.00 | 66 | 1009.9 |
| 20260504035254 | 50 | 112 | 1.7 | 12.2 | 0.00 | 0.00 | 0.00 | 66 | 1010.1 |
| 20260504034751 | 50 | 142 | 3.5 | 10.4 | 0.00 | 0.00 | 0.00 | 66 | 1010.3 |
| 20260504034249 | 50 | 191 | 4.3 | 9.6 | 0.00 | 0.00 | 0.00 | 65 | 1010.2 |
| 20260504033746 | 50 | 198 | 3.5 | 8.7 | 0.00 | 0.00 | 0.00 | 65 | 1010.1 |
| 20260504033244 | 50 | 195 | 3.5 | 8.7 | 0.00 | 0.00 | 0.00 | 65 | 1010.3 |
| 20260504032740 | 50 | 143 | 2.6 | 13.9 | 0.00 | 0.00 | 0.00 | 66 | 1010.4 |
| 20260504032237 | 50 | 62 | 2.6 | 11.3 | 0.00 | 0.00 | 0.00 | 66 | 1010.2 |
| 20260504031734 | 49 | 170 | 3.5 | 12.2 | 0.00 | 0.00 | 0.00 | 67 | 1010.4 |
| 20260504031232 | 49 | 187 | 4.3 | 14.8 | 0.00 | 0.00 | 0.00 | 67 | 1010.4 |
| 20260504030727 | 49 | 131 | 5.2 | 14.8 | 0.00 | 0.00 | 0.00 | 67 | 1010.5 |
| 20260504030225 | 49 | 200 | 2.6 | 9.6 | 0.00 | 0.00 | 0.00 | 67 | 1010.5 |
| 20260504025721 | 49 | 199 | 5.2 | 10.4 | 0.00 | 0.00 | 0.00 | 67 | 1010.5 |
| 20260504025218 | 49 | 160 | 4.3 | 10.4 | 0.00 | 0.00 | 0.00 | 67 | 1010.6 |
| 20260504024715 | 49 | 323 | 4.3 | 13.0 | 0.00 | 0.00 | 0.00 | 67 | 1010.6 |
| 20260504024211 | 49 | 142 | 4.3 | 10.4 | 0.00 | 0.00 | 0.00 | 68 | 1010.8 |
| 20260504023708 | 49 | 244 | 1.7 | 7.8 | 0.00 | 0.00 | 0.00 | 68 | 1010.5 |
| 20260504023204 | 49 | 170 | 4.3 | 10.4 | 0.00 | 0.00 | 0.00 | 68 | 1010.7 |
| 20260504022700 | 49 | 92 | 2.6 | 12.2 | 0.00 | 0.00 | 0.00 | 68 | 1011.0 |
| 20260504022156 | 49 | 183 | 7.8 | 10.4 | 0.00 | 0.00 | 0.00 | 69 | 1010.9 |
| 20260504021655 | 49 | 199 | 3.5 | 7.8 | 0.00 | 0.00 | 0.00 | 69 | 1010.9 |
| 20260504021151 | 49 | 209 | 1.7 | 5.2 | 0.00 | 0.00 | 0.00 | 69 | 1011.0 |
| 20260504020648 | 49 | 168 | 2.6 | 10.4 | 0.00 | 0.00 | 0.00 | 69 | 1010.9 |
| 20260504020144 | 49 | 121 | 10.4 | 10.4 | 0.00 | 0.00 | 0.00 | 69 | 1010.9 |
| 20260504015641 | 49 | 210 | 3.5 | 9.6 | 0.00 | 0.00 | 0.00 | 69 | 1010.9 |
| 20260504015137 | 49 | 130 | 4.3 | 6.1 | 0.00 | 0.00 | 0.00 | 68 | 1010.9 |
| 20260504014633 | 49 | 147 | 1.7 | 6.1 | 0.00 | 0.00 | 0.00 | 68 | 1010.9 |
| 20260504014130 | 49 | 165 | 0.9 | 9.6 | 0.00 | 0.00 | 0.00 | 67 | 1010.8 |
| 20260504013628 | 50 | 203 | 3.5 | 6.1 | 0.00 | 0.00 | 0.00 | 67 | 1010.8 |
| 20260504013124 | 50 | 189 | 6.1 | 7.0 | 0.00 | 0.00 | 0.00 | 66 | 1010.9 |
| 20260504012622 | 50 | 192 | 4.3 | 9.6 | 0.00 | 0.00 | 0.00 | 66 | 1010.9 |
| 20260504012120 | 50 | 221 | 3.5 | 7.0 | 0.00 | 0.00 | 0.00 | 66 | 1010.9 |
| 20260504011616 | 50 | 190 | 4.3 | 8.7 | 0.00 | 0.00 | 0.00 | 65 | 1011.1 |
| 20260504011113 | 50 | 174 | 5.2 | 7.0 | 0.00 | 0.00 | 0.00 | 65 | 1011.0 |
| 20260504010608 | 50 | 197 | 2.6 | 7.0 | 0.00 | 0.00 | 0.00 | 65 | 1011.1 |
| 20260504010105 | 51 | 30 | 2.6 | 7.8 | 0.00 | 0.00 | 0.00 | 64 | 1011.0 |
| 20260504005601 | 51 | 182 | 4.3 | 7.8 | 0.00 | 0.00 | 0.00 | 63 | 1011.1 |
| 20260504005059 | 51 | 190 | 4.3 | 7.0 | 0.00 | 0.00 | 0.00 | 63 | 1011.2 |
| 20260504004556 | 51 | 201 | 3.5 | 5.2 | 0.00 | 0.00 | 0.00 | 64 | 1011.3 |
| 20260504004053 | 51 | 194 | 0.9 | 7.8 | 0.00 | 0.00 | 0.00 | 63 | 1011.1 |
| 20260504003549 | 51 | 193 | 7.0 | 8.7 | 0.00 | 0.00 | 0.00 | 62 | 1011.0 |
| 20260504003046 | 51 | 199 | 6.1 | 8.7 | 0.00 | 0.00 | 0.00 | 62 | 1011.1 |
| 20260504002543 | 51 | 184 | 2.6 | 6.1 | 0.00 | 0.00 | 0.00 | 63 | 1011.0 |
| 20260504002041 | 51 | 217 | 8.7 | 10.4 | 0.00 | 0.00 | 0.00 | 62 | 1011.3 |
| 20260504001538 | 51 | 218 | 9.6 | 13.0 | 0.00 | 0.00 | 0.00 | 61 | 1011.3 |
| 20260504001034 | 51 | 201 | 5.2 | 9.6 | 0.00 | 0.00 | 0.00 | 60 | 1011.3 |
| 20260504000532 | 51 | 193 | 4.3 | 12.2 | 0.00 | 0.00 | 0.00 | 59 | 1011.4 |
| 20260504000029 | 51 | 221 | 4.3 | 10.4 | 0.00 | 0.00 | 0.00 | 59 | 1011.4 |
| 20260503235527 | 52 | 207 | 11.3 | 12.2 | 0.00 | 0.00 | 0.00 | 59 | 1011.4 |
| 20260503235023 | 52 | 209 | 5.2 | 13.9 | 0.00 | 0.00 | 0.00 | 58 | 1011.4 |
| 20260503234521 | 52 | 213 | 8.7 | 22.6 | 0.00 | 0.00 | 0.00 | 57 | 1011.6 |
| 20260503234020 | 52 | 219 | 7.8 | 20.0 | 0.00 | 0.00 | 0.00 | 55 | 1011.9 |
| 20260503233515 | 52 | 233 | 7.8 | 23.5 | 0.00 | 0.00 | 0.00 | 56 | 1011.6 |
| 20260503233011 | 52 | 221 | 6.1 | 12.2 | 0.00 | 0.00 | 0.00 | 58 | 1011.9 |
| 20260503232509 | 52 | 219 | 7.0 | 13.9 | 0.00 | 0.00 | 0.00 | 56 | 1011.7 |
| 20260503232006 | 53 | 229 | 7.8 | 13.9 | 0.00 | 0.00 | 0.00 | 57 | 1011.8 |
| 20260503231504 | 53 | 225 | 9.6 | 16.5 | 0.00 | 0.00 | 0.00 | 57 | 1011.8 |
| 20260503231000 | 53 | 234 | 8.7 | 22.6 | 0.00 | 0.00 | 0.00 | 57 | 1011.9 |
| 20260503230457 | 53 | 209 | 19.1 | 20.0 | 0.00 | 0.00 | 0.00 | 57 | 1011.7 |
| 20260503225954 | 53 | 211 | 6.1 | 15.6 | 0.00 | 0.00 | 0.00 | 56 | 1011.7 |
| 20260503225451 | 54 | 222 | 9.6 | 21.7 | 0.00 | 0.00 | 0.00 | 56 | 1011.9 |
| 20260503224946 | 55 | 230 | 20.9 | 26.9 | 0.00 | 0.00 | 0.00 | 54 | 1011.7 |
| 20260503224444 | 55 | 238 | 16.5 | 29.5 | 0.00 | 0.00 | 0.00 | 55 | 1011.7 |
| 20260503223942 | 55 | 241 | 28.7 | 34.8 | 0.00 | 0.00 | 0.00 | 55 | 1011.8 |
| 20260503223439 | 55 | 250 | 18.2 | 31.3 | 0.00 | 0.00 | 0.00 | 55 | 1011.6 |
| 20260503222934 | 55 | 239 | 22.6 | 33.9 | 0.00 | 0.00 | 0.00 | 54 | 1011.5 |
| 20260503222433 | 57 | 245 | 22.6 | 26.1 | 0.00 | 0.00 | 0.00 | 50 | 1011.6 |
| 20260503221931 | 59 | 250 | 19.1 | 25.2 | 0.00 | 0.00 | 0.00 | 35 | 1011.4 |
| 20260503221429 | 59 | 221 | 13.9 | 17.4 | 0.00 | 0.00 | 0.00 | 34 | 1011.3 |
| 20260503220926 | 59 | 241 | 26.1 | 26.1 | 0.00 | 0.00 | 0.00 | 34 | 1011.4 |
| 20260503220422 | 59 | 249 | 16.5 | 18.2 | 0.00 | 0.00 | 0.00 | 33 | 1011.1 |
| 20260503215919 | 59 | 218 | 6.1 | 19.1 | 0.00 | 0.00 | 0.00 | 32 | 1011.4 |
| 20260503215416 | 59 | 250 | 7.8 | 16.5 | 0.00 | 0.00 | 0.00 | 33 | 1011.4 |
| 20260503214914 | 59 | 240 | 9.6 | 21.7 | 0.00 | 0.00 | 0.00 | 32 | 1011.2 |
| 20260503214411 | 59 | 252 | 15.6 | 29.5 | 0.00 | 0.00 | 0.00 | 33 | 1011.3 |
| 20260503213908 | 60 | 221 | 7.8 | 30.4 | 0.00 | 0.00 | 0.00 | 33 | 1011.4 |
| 20260503213406 | 60 | 215 | 14.8 | 27.8 | 0.00 | 0.00 | 0.00 | 32 | 1011.4 |
| 20260503212902 | 60 | 230 | 5.2 | 19.1 | 0.00 | 0.00 | 0.00 | 33 | 1011.4 |
| 20260503212400 | 59 | 221 | 17.4 | 20.0 | 0.00 | 0.00 | 0.00 | 32 | 1011.5 |
| 20260503211857 | 60 | 227 | 7.8 | 17.4 | 0.00 | 0.00 | 0.00 | 32 | 1011.5 |
| 20260503211354 | 60 | 239 | 6.1 | 19.1 | 0.00 | 0.00 | 0.00 | 32 | 1011.7 |
| 20260503210849 | 60 | 223 | 13.0 | 26.9 | 0.00 | 0.00 | 0.00 | 30 | 1011.6 |
| 20260503210347 | 60 | 212 | 13.0 | 21.7 | 0.00 | 0.00 | 0.00 | 31 | 1011.7 |
| 20260503205841 | 60 | 229 | 20.0 | 26.9 | 0.00 | 0.00 | 0.00 | 30 | 1011.8 |
| 20260503205339 | 60 | 232 | 16.5 | 26.9 | 0.00 | 0.00 | 0.00 | 31 | 1011.9 |
| 20260503204835 | 60 | 213 | 19.1 | 30.4 | 0.00 | 0.00 | 0.00 | 29 | 1011.7 |
| 20260503204332 | 60 | 219 | 17.4 | 23.5 | 0.00 | 0.00 | 0.00 | 30 | 1011.9 |
| 20260503203829 | 60 | 240 | 9.6 | 23.5 | 0.00 | 0.00 | 0.00 | 30 | 1011.9 |
| 20260503203327 | 60 | 236 | 19.1 | 30.4 | 0.00 | 0.00 | 0.00 | 33 | 1011.9 |
| 20260503202823 | 60 | 227 | 12.2 | 20.9 | 0.00 | 0.00 | 0.00 | 30 | 1012.1 |
| 20260503202322 | 60 | 224 | 12.2 | 17.4 | 0.00 | 0.00 | 0.00 | 32 | 1012.0 |
| 20260503201820 | 60 | 226 | 13.9 | 33.9 | 0.00 | 0.00 | 0.00 | 29 | 1012.0 |
| 20260503201316 | 60 | 233 | 9.6 | 19.1 | 0.00 | 0.00 | 0.00 | 34 | 1012.1 |
| 20260503200814 | 60 | 249 | 11.3 | 26.1 | 0.00 | 0.00 | 0.00 | 32 | 1012.2 |
| 20260503200309 | 60 | 259 | 7.8 | 26.1 | 0.00 | 0.00 | 0.00 | 31 | 1012.2 |
| 20260503195807 | 60 | 232 | 16.5 | 25.2 | 0.00 | 0.00 | 0.00 | 31 | 1012.3 |
| 20260503195304 | 60 | 217 | 10.4 | 28.7 | 0.00 | 0.00 | 0.00 | 31 | 1012.3 |
| 20260503194801 | 61 | 224 | 8.7 | 27.8 | 0.00 | 0.00 | 0.00 | 29 | 1012.3 |
| 20260503194256 | 60 | 244 | 12.2 | 26.9 | 0.00 | 0.00 | 0.00 | 32 | 1012.5 |
| 20260503193753 | 59 | 226 | 17.4 | 22.6 | 0.00 | 0.00 | 0.00 | 30 | 1012.4 |
| 20260503193249 | 60 | 238 | 17.4 | 26.9 | 0.00 | 0.00 | 0.00 | 33 | 1012.6 |
| 20260503192745 | 60 | 242 | 7.0 | 21.7 | 0.00 | 0.00 | 0.00 | 33 | 1012.6 |
| 20260503192240 | 60 | 211 | 22.6 | 22.6 | 0.00 | 0.00 | 0.00 | 30 | 1012.6 |
| 20260503191737 | 60 | 221 | 14.8 | 24.3 | 0.00 | 0.00 | 0.00 | 29 | 1012.7 |
| 20260503191234 | 60 | 221 | 11.3 | 24.3 | 0.00 | 0.00 | 0.00 | 30 | 1012.9 |
| 20260503190731 | 60 | 219 | 7.8 | 23.5 | 0.00 | 0.00 | 0.00 | 32 | 1012.7 |
| 20260503190228 | 59 | 196 | 9.6 | 24.3 | 0.00 | 0.00 | 0.00 | 32 | 1012.8 |
| 20260503185725 | 60 | 227 | 8.7 | 26.9 | 0.00 | 0.00 | 0.00 | 31 | 1013.0 |
| 20260503185221 | 60 | 233 | 16.5 | 22.6 | 0.00 | 0.00 | 0.00 | 32 | 1013.0 |
| 20260503184715 | 60 | 230 | 12.2 | 16.5 | 0.00 | 0.00 | 0.00 | 28 | 1013.0 |
| 20260503184212 | 60 | 256 | 7.0 | 23.5 | 0.00 | 0.00 | 0.00 | 31 | 1013.2 |
| 20260503183708 | 60 | 231 | 7.8 | 24.3 | 0.00 | 0.00 | 0.00 | 31 | 1013.1 |
| 20260503183206 | 60 | 245 | 11.3 | 19.1 | 0.00 | 0.00 | 0.00 | 35 | 1013.2 |
| 20260503182704 | 60 | 235 | 7.8 | 19.1 | 0.00 | 0.00 | 0.00 | 31 | 1013.5 |
| 20260503182202 | 60 | 212 | 14.8 | 26.1 | 0.00 | 0.00 | 0.00 | 28 | 1013.3 |
| 20260503181658 | 60 | 212 | 19.1 | 22.6 | 0.00 | 0.00 | 0.00 | 30 | 1013.5 |
| 20260503181155 | 60 | 237 | 18.2 | 19.1 | 0.00 | 0.00 | 0.00 | 31 | 1013.6 |
| 20260503180652 | 59 | 228 | 12.2 | 23.5 | 0.00 | 0.00 | 0.00 | 30 | 1013.6 |
| 20260503180150 | 59 | 226 | 13.0 | 26.9 | 0.00 | 0.00 | 0.00 | 31 | 1013.5 |
| 20260503175647 | 60 | 237 | 10.4 | 26.1 | 0.00 | 0.00 | 0.00 | 29 | 1013.6 |
| 20260503175144 | 59 | 223 | 10.4 | 26.9 | 0.00 | 0.00 | 0.00 | 30 | 1013.8 |
| 20260503174640 | 59 | 235 | 6.1 | 32.2 | 0.00 | 0.00 | 0.00 | 30 | 1013.8 |
| 20260503174138 | 59 | 216 | 13.0 | 27.8 | 0.00 | 0.00 | 0.00 | 29 | 1013.9 |
| 20260503173632 | 59 | 246 | 13.9 | 19.1 | 0.00 | 0.00 | 0.00 | 32 | 1013.8 |
| 20260503173130 | 59 | 228 | 15.6 | 23.5 | 0.00 | 0.00 | 0.00 | 31 | 1014.1 |
| 20260503172627 | 59 | 225 | 20.0 | 26.9 | 0.00 | 0.00 | 0.00 | 32 | 1013.8 |
| 20260503172124 | 59 | 233 | 8.7 | 27.8 | 0.00 | 0.00 | 0.00 | 38 | 1013.9 |
| 20260503171620 | 59 | 264 | 13.0 | 26.1 | 0.00 | 0.00 | 0.00 | 35 | 1014.2 |
| 20260503171117 | 58 | 265 | 15.6 | 21.7 | 0.00 | 0.00 | 0.00 | 34 | 1014.1 |
| 20260503170615 | 59 | 223 | 6.1 | 26.1 | 0.00 | 0.00 | 0.00 | 33 | 1014.3 |
| 20260503170111 | 59 | 262 | 15.6 | 23.5 | 0.00 | 0.00 | 0.00 | 34 | 1014.4 |
| 20260503151006 | 54 | 254 | 5.2 | 22.6 | 0.00 | 0.00 | 0.00 | 44 | 1015.5 |
| 20260503150503 | 54 | 245 | 17.4 | 19.1 | 0.00 | 0.00 | 0.00 | 44 | 1015.3 |
| 20260503131356 | 48 | 233 | 14.8 | 26.1 | 0.00 | 0.00 | 0.00 | 49 | 1015.7 |
| 20260503130853 | 47 | 235 | 11.3 | 18.2 | 0.00 | 0.00 | 0.00 | 53 | 1015.7 |